GW1878 Weather Reports


time (UTC)temp
C
wind
direction
speed
KPH
gust
KPH
rain 1hr
cm
rain 24hr
cm
rain mn
cm
humidity
%
barometer
mb
20260502212055 14 302 3.2 8.0 0.00 0.00 0.00 49 1028.3
20260502211550 14 96 0.0 0.0 0.00 0.00 0.00 49 1028.3
20260502211048 13 234 0.0 0.0 0.00 0.00 0.00 51 1028.5
20260502210545 14 271 0.0 0.0 0.00 0.00 0.00 50 1028.8
20260502210042 13 103 0.0 0.0 0.00 0.00 0.00 52 1028.8
20260502205538 12 300 0.0 0.0 0.00 0.00 0.00 53 1029.0
20260502205036 12 254 4.8 9.7 0.00 0.00 0.00 54 1029.1
20260502204532 12 264 4.8 8.0 0.00 0.00 0.00 55 1029.2
20260502204030 13 274 0.0 0.0 0.00 0.00 0.00 54 1029.1
20260502203527 12 227 0.0 0.0 0.00 0.00 0.00 54 1029.1
20260502203024 12 283 1.6 3.2 0.00 0.00 0.00 55 1029.2
20260502202520 11 5 4.8 4.8 0.00 0.00 0.00 56 1029.2
20260502202019 11 318 0.0 1.6 0.00 0.00 0.00 56 1029.2
20260502201514 11 279 0.0 0.0 0.00 0.00 0.00 56 1029.2
20260502201010 11 292 1.6 3.2 0.00 0.00 0.00 56 1029.2
20260502200507 12 284 4.8 8.0 0.00 0.00 0.00 55 1029.2
20260502200005 12 252 4.8 4.8 0.00 0.00 0.00 55 1029.1
20260502195502 11 290 11.3 12.9 0.00 0.00 0.00 56 1029.2
20260502194957 12 306 6.4 8.0 0.00 0.00 0.00 55 1029.2
20260502194455 11 209 1.6 3.2 0.00 0.00 0.00 57 1029.6
20260502193950 11 284 8.0 9.7 0.00 0.00 0.00 57 1029.5
20260502193448 11 224 3.2 3.2 0.00 0.00 0.00 58 1029.6
20260502192944 11 216 8.0 11.3 0.00 0.00 0.00 58 1029.4
20260502192441 11 268 0.0 0.0 0.00 0.00 0.00 57 1029.4
20260502191938 11 262 3.2 4.8 0.00 0.00 0.00 58 1029.4
20260502191435 11 298 3.2 4.8 0.00 0.00 0.00 59 1029.6
20260502190933 11 287 4.8 4.8 0.00 0.00 0.00 58 1029.6
20260502190430 12 316 3.2 3.2 0.00 0.00 0.00 59 1029.6
20260502185926 11 323 3.2 3.2 0.00 0.00 0.00 60 1029.7
20260502185421 11 49 1.6 1.6 0.00 0.00 0.00 62 1029.7
20260502184919 10 59 1.6 1.6 0.00 0.00 0.00 63 1030.0
20260502184414 10 53 1.6 1.6 0.00 0.00 0.00 64 1029.8
20260502183911 10 76 3.2 3.2 0.00 0.00 0.00 64 1030.1
20260502183407 10 96 1.6 1.6 0.00 0.00 0.00 66 1030.1
20260502182903 10 87 3.2 4.8 0.00 0.00 0.00 67 1030.2
20260502182358 10 88 4.8 4.8 0.00 0.00 0.00 67 1030.1
20260502181855 9 305 1.6 3.2 0.00 0.00 0.00 69 1030.1
20260502181353 9 276 4.8 4.8 0.00 0.00 0.00 70 1030.3
20260502180851 8 287 0.0 0.0 0.00 0.00 0.00 71 1030.2
20260502180348 8 310 1.6 1.6 0.00 0.00 0.00 72 1030.3
20260502170306 7 270 1.6 3.2 0.00 0.00 0.00 81 1030.6
20260502164255 7 274 1.6 3.2 0.00 0.00 0.00 83 1030.4
20260502163750 7 268 0.0 1.6 0.00 0.00 0.00 83 1030.3
20260502163247 7 274 0.0 0.0 0.00 0.00 0.00 83 1030.3
20260502162744 6 271 0.0 0.0 0.00 0.00 0.00 83 1030.3
20260502162240 6 229 0.0 0.0 0.00 0.00 0.00 83 1030.1
20260502161737 6 235 0.0 1.6 0.00 0.00 0.00 84 1030.3
20260502161233 6 252 0.0 0.0 0.00 0.00 0.00 84 1030.2
20260502160732 6 264 0.0 0.0 0.00 0.00 0.00 84 1030.3
20260502160231 6 262 3.2 3.2 0.00 0.00 0.00 84 1030.1
20260502152155 6 280 0.0 0.0 0.00 0.00 0.00 85 1029.7
20260502151652 6 270 4.8 4.8 0.00 0.00 0.00 85 1029.6
20260502151149 6 246 6.4 8.0 0.00 0.00 0.00 85 1029.6
20260502150647 6 271 9.7 12.9 0.00 0.00 0.00 85 1029.5
20260502150143 6 243 9.7 11.3 0.00 0.00 0.00 85 1029.4
20260502140106 6 305 0.0 0.0 0.00 0.00 0.00 85 1029.4
20260502130532 6 278 4.8 4.8 0.00 0.00 0.00 84 1028.4
20260502123515 6 338 0.0 0.0 0.00 0.00 0.00 83 1028.2
20260502123011 6 338 0.0 0.0 0.00 0.00 0.00 83 1028.1
20260502122508 6 338 0.0 0.0 0.00 0.00 0.00 83 1027.9
20260502122005 6 339 0.0 0.0 0.00 0.00 0.00 83 1027.9
20260502121502 6 339 0.0 0.0 0.00 0.00 0.00 82 1027.9
20260502121000 6 339 0.0 1.6 0.00 0.00 0.00 82 1028.1
20260502120456 6 339 0.0 1.6 0.00 0.00 0.00 82 1028.1
20260502115450 6 322 0.0 0.0 0.00 0.00 0.00 81 1028.1
20260502114946 6 319 0.0 0.0 0.00 0.00 0.00 81 1028.1
20260502114443 6 315 0.0 0.0 0.00 0.00 0.00 81 1027.9
20260502113941 6 314 0.0 0.0 0.00 0.00 0.00 81 1027.9
20260502113438 6 310 0.0 0.0 0.00 0.00 0.00 80 1027.8
20260502112937 6 304 0.0 0.0 0.00 0.00 0.00 80 1028.1
20260502112434 6 302 0.0 0.0 0.00 0.00 0.00 79 1027.8
20260502111931 6 288 4.8 4.8 0.00 0.00 0.00 79 1027.8
20260502111428 6 306 4.8 4.8 0.00 0.00 0.00 78 1027.6
20260502110926 7 274 0.0 0.0 0.00 0.00 0.00 77 1027.9
20260502110423 7 292 1.6 1.6 0.00 0.00 0.00 76 1027.7
20260502105920 7 324 4.8 4.8 0.00 0.00 0.00 76 1027.8
20260502105417 7 332 4.8 8.0 0.00 0.00 0.00 75 1027.7
20260502104916 7 333 1.6 3.2 0.00 0.00 0.00 75 1027.8
20260502104412 7 336 1.6 3.2 0.00 0.00 0.00 74 1027.6
20260502103909 7 351 0.0 0.0 0.00 0.00 0.00 73 1027.8
20260502103408 7 8 1.6 3.2 0.00 0.00 0.00 72 1027.5
20260502102904 7 25 0.0 0.0 0.00 0.00 0.00 72 1027.5
20260502102400 7 60 0.0 0.0 0.00 0.00 0.00 71 1027.5
20260502101858 7 61 0.0 0.0 0.00 0.00 0.00 72 1027.2
20260502101356 7 60 0.0 1.6 0.00 0.00 0.00 73 1027.1
20260502100854 7 59 0.0 0.0 0.00 0.00 0.00 73 1027.3
20260502100353 7 59 0.0 0.0 0.00 0.00 0.00 74 1027.2
20260502091327 7 85 0.0 0.0 0.00 0.00 0.00 75 1027.0
20260502090825 7 70 0.0 0.0 0.00 0.00 0.00 75 1026.9
20260502090321 7 65 1.6 1.6 0.00 0.00 0.00 75 1027.1
20260502071216 8 74 0.0 0.0 0.00 0.00 0.00 63 1026.4
20260502070715 8 33 1.6 3.2 0.00 0.00 0.00 63 1026.4
20260502070212 8 38 0.0 0.0 0.00 0.00 0.00 63 1026.4
20260502065710 8 43 0.0 0.0 0.00 0.00 0.00 63 1026.4
20260502065208 8 62 0.0 0.0 0.00 0.00 0.00 63 1026.6
20260502064706 8 58 0.0 0.0 0.00 0.00 0.00 62 1026.5
20260502064203 8 67 0.0 0.0 0.00 0.00 0.00 62 1026.3
20260502063701 8 109 1.6 3.2 0.00 0.00 0.00 62 1026.4
20260502063158 8 113 1.6 4.8 0.00 0.00 0.00 62 1026.4
20260502062655 8 113 1.6 4.8 0.00 0.00 0.00 62 1026.5
20260502062153 8 112 0.0 0.0 0.00 0.00 0.00 62 1026.6
20260502061651 8 86 0.0 0.0 0.00 0.00 0.00 62 1026.9
20260502061148 8 91 0.0 0.0 0.00 0.00 0.00 63 1026.7
20260502060648 8 106 0.0 0.0 0.00 0.00 0.00 63 1026.7
20260502060145 8 95 4.8 4.8 0.00 0.00 0.00 62 1026.6
20260502055643 8 110 0.0 0.0 0.00 0.58 0.58 62 1026.7
20260502055141 8 86 0.0 0.0 0.00 0.58 0.58 62 1027.1
20260502054640 8 70 0.0 0.0 0.00 0.58 0.58 62 1027.1
20260502054136 8 92 0.0 0.0 0.00 0.58 0.58 62 1027.1
20260502053634 8 99 0.0 0.0 0.00 0.58 0.58 61 1027.1
20260502053131 8 124 0.0 0.0 0.00 0.58 0.58 61 1027.0
20260502052629 8 110 0.0 0.0 0.00 0.58 0.58 61 1027.1
20260502052127 8 113 0.0 0.0 0.00 0.58 0.58 61 1026.7
20260502051625 8 109 0.0 0.0 0.00 0.58 0.58 61 1027.0
20260502051123 8 116 0.0 3.2 0.00 0.58 0.58 61 1026.9
20260502050619 8 102 0.0 1.6 0.00 0.58 0.58 61 1027.0
20260502050115 8 117 1.6 8.0 0.00 0.58 0.58 61 1026.7
20260502045612 8 96 0.0 1.6 0.00 0.58 0.58 61 1026.7
20260502045109 8 101 0.0 0.0 0.00 0.58 0.58 61 1026.9
20260502044605 8 71 0.0 0.0 0.00 0.58 0.58 61 1027.1
20260502044102 8 106 0.0 1.6 0.00 0.58 0.58 61 1027.1
20260502043600 8 84 0.0 0.0 0.00 0.58 0.58 60 1027.0
20260502043057 8 116 1.6 3.2 0.00 0.58 0.58 61 1026.6
20260502042551 8 94 0.0 0.0 0.00 0.58 0.58 61 1026.6
20260502042049 8 123 12.9 14.5 0.00 0.58 0.58 60 1026.4
20260502041546 8 100 9.7 14.5 0.00 0.58 0.58 60 1026.5
20260502041043 8 116 14.5 22.5 0.00 0.58 0.58 60 1026.3
20260502040539 8 73 3.2 8.0 0.00 0.58 0.58 60 1026.1
20260502040037 8 133 19.3 25.7 0.00 0.58 0.58 60 1025.9
20260502035532 8 79 9.7 14.5 0.00 0.58 0.58 60 1026.0
20260502035030 8 109 9.7 14.5 0.00 0.58 0.58 60 1026.0
20260502034528 8 98 8.0 12.9 0.00 0.58 0.58 60 1026.0
20260502034026 8 92 3.2 8.0 0.00 0.58 0.58 61 1025.9
20260502033524 8 92 3.2 8.0 0.00 0.58 0.58 61 1025.8
20260502033021 8 116 9.7 14.5 0.00 0.58 0.58 61 1025.7
20260502032517 8 126 3.2 4.8 0.00 0.58 0.58 61 1025.9
20260502032014 8 105 8.0 14.5 0.00 0.58 0.58 61 1025.4
20260502031512 8 125 14.5 22.5 0.00 0.58 0.58 61 1025.7
20260502031010 8 108 12.9 17.7 0.00 0.58 0.58 61 1025.3
20260502030508 8 101 11.3 16.1 0.00 0.58 0.58 61 1025.4
20260502030006 8 83 11.3 20.9 0.00 0.58 0.58 61 1025.2
20260502025503 8 133 0.0 1.6 0.00 0.58 0.58 61 1025.1
20260502025001 8 99 0.0 1.6 0.00 0.58 0.58 61 1024.8
20260502024458 8 106 12.9 22.5 0.00 0.58 0.58 61 1024.9
20260502023956 8 60 0.0 1.6 0.00 0.58 0.58 61 1024.8
20260502023453 8 101 3.2 4.8 0.00 0.58 0.58 61 1024.6
20260502022951 8 118 1.6 3.2 0.00 0.58 0.58 61 1024.6
20260502022447 8 92 9.7 14.5 0.00 0.58 0.58 61 1024.6
20260502021944 8 83 1.6 4.8 0.00 0.58 0.58 61 1024.5
20260502021442 8 102 8.0 11.3 0.00 0.58 0.58 61 1024.3
20260502020938 8 81 8.0 17.7 0.00 0.58 0.58 60 1024.2
20260502020437 8 110 16.1 25.7 0.00 0.58 0.58 60 1024.2
20260502015933 8 99 12.9 16.1 0.00 0.58 0.58 60 1024.2
20260502015431 8 62 1.6 3.2 0.00 0.58 0.58 60 1024.1
20260502014927 8 121 8.0 14.5 0.00 0.58 0.58 60 1024.1
20260502014424 8 83 11.3 16.1 0.00 0.58 0.58 60 1024.1
20260502013920 8 80 11.3 20.9 0.00 0.58 0.58 60 1024.0
20260502013416 8 98 11.3 24.1 0.00 0.58 0.58 60 1023.9
20260502012913 8 128 14.5 20.9 0.00 0.58 0.58 60 1024.1
20260502012411 9 107 14.5 20.9 0.00 0.58 0.58 59 1023.9
20260502011908 9 90 11.3 16.1 0.00 0.58 0.58 59 1023.7
20260502011404 9 92 6.4 9.7 0.00 0.58 0.58 59 1023.7
20260502010901 10 108 3.2 8.0 0.00 0.58 0.58 59 1023.5
20260502010357 10 101 3.2 8.0 0.00 0.58 0.58 59 1023.6
20260502005854 10 107 6.4 11.3 0.00 0.58 0.58 58 1023.7
20260502005352 10 92 9.7 12.9 0.00 0.58 0.58 58 1023.4
20260502004849 10 126 16.1 20.9 0.00 0.58 0.58 58 1023.4
20260502004345 10 95 12.9 17.7 0.00 0.58 0.58 58 1023.5
20260502003843 10 113 17.7 27.4 0.00 0.58 0.58 57 1023.5
20260502003340 10 94 4.8 11.3 0.00 0.58 0.58 56 1023.1
20260502002836 10 55 16.1 24.1 0.00 0.58 0.58 56 1023.1
20260502002334 10 104 20.9 35.4 0.00 0.58 0.58 56 1023.4
20260502001831 10 107 17.7 25.7 0.00 0.58 0.58 55 1023.1
20260502001329 10 71 22.5 32.2 0.00 0.58 0.58 55 1023.0
20260502000826 11 120 17.7 20.9 0.00 0.58 0.58 54 1023.0
20260502000325 11 102 19.3 24.1 0.00 0.58 0.58 54 1022.9
20260501235820 11 96 11.3 22.5 0.00 0.58 0.58 54 1022.7
20260501235316 11 109 19.3 22.5 0.00 0.58 0.58 54 1022.8
20260501234811 11 106 19.3 29.0 0.00 0.58 0.58 54 1022.8
20260501234309 11 104 8.0 14.5 0.00 0.58 0.58 54 1022.7
20260501233807 11 103 22.5 27.4 0.00 0.58 0.58 54 1022.7
20260501233304 11 115 25.7 38.6 0.00 0.58 0.58 54 1022.4
20260501232759 11 92 19.3 27.4 0.00 0.58 0.58 53 1022.4
20260501232256 12 116 14.5 25.7 0.00 0.58 0.58 52 1022.2
20260501231754 12 69 3.2 9.7 0.00 0.58 0.58 54 1022.1
20260501231252 12 102 11.3 20.9 0.00 0.58 0.58 54 1022.2
20260501230750 11 71 14.5 25.7 0.00 0.58 0.58 53 1022.1
20260501230249 11 130 17.7 24.1 0.00 0.58 0.58 54 1022.1
20260501225746 11 112 27.4 33.8 0.00 0.58 0.58 54 1022.1
20260501225243 12 68 22.5 27.4 0.00 0.58 0.58 53 1022.1
20260501224739 12 68 3.2 9.7 0.00 0.58 0.58 52 1021.9
20260501224237 12 143 14.5 20.9 0.00 0.58 0.58 53 1022.2
20260501223732 12 114 22.5 33.8 0.00 0.58 0.58 54 1021.9
20260501223229 12 117 20.9 27.4 0.00 0.58 0.58 53 1022.1
20260501222725 12 88 16.1 25.7 0.00 0.58 0.58 53 1021.7
20260501222223 12 116 3.2 8.0 0.00 0.58 0.58 55 1022.1
20260501221720 12 109 27.4 35.4 0.00 0.58 0.58 55 1021.6
20260501221217 12 121 16.1 24.1 0.00 0.58 0.58 55 1021.8
20260501220714 12 70 11.3 20.9 0.00 0.58 0.58 52 1021.7
20260501220211 13 110 24.1 29.0 0.00 0.58 0.58 51 1021.7
20260501215708 12 131 16.1 25.7 0.00 0.58 0.58 51 1021.6
20260501215203 12 107 9.7 24.1 0.00 0.58 0.58 52 1021.7
20260501214658 12 106 27.4 35.4 0.00 0.58 0.58 52 1021.9
20260501214154 12 84 6.4 12.9 0.00 0.58 0.58 53 1021.9
20260501213652 12 128 9.7 12.9 0.00 0.58 0.58 54 1021.9
20260501213147 12 37 12.9 16.1 0.00 0.58 0.58 53 1022.1
20260501212644 12 62 14.5 17.7 0.00 0.58 0.58 52 1021.8
20260501212141 13 84 8.0 17.7 0.00 0.58 0.58 53 1022.4